Location: Alafon
(8.4500°N, 4.2333°E)
Time: 22:48:45
(UTC+00:00)

Explorer 7 - Pass Details

Date: 29 July 2021
Orbit: 484 x 676 km, 50.3° (Epoch: 18 September)

Event Time Altitude Azimuth Distance (km) Brightness Sun altitude
Rises 15:11:36 0° 294° (WNW) 2,964 11.4 40.0°
Reaches altitude 10° 15:14:40 10° 274° (W) 2,077 10.9 39.3°
Maximum altitude 15:17:44 17° 234° (SW) 1,682 9.9 38.6°
Drops below altitude 10° 15:20:50 10° 194° (SSW) 2,101 9.9 37.8°
Sets 15:23:58 0° 174° (S) 3,014 10.4 37.1°
